Weather History for Novato, CA

Change the Weather History Date:

Thursday, June 13, 2013

  Actual Average (KAPC) Record (KAPC)
Temperature  
Mean Temperature 63 °F 64 °F  
Max Temperature 78 °F 79 °F 98 °F (2000)
Min Temperature 48 °F 50 °F 42 °F (2014)
Degree Days  
Heating Degree Days 2    
Month to date heating degree days  
Since 1 June heating degree days  
Since 1 July heating degree days  
Cooling Degree Days 0    
Month to date cooling degree days  
Year to date cooling degree days  
Since 1 June cooling degree days  
Growing Degree Days 13 (Base 50)    
Moisture  
Dew Point 45 °F    
Average Humidity 52    
Maximum Humidity 87    
Minimum Humidity 30    
Precipitation  
Precipitation 0.00 in - 0.03 in (1958)
Month to date precipitation  
Year to date precipitation  
Since 1 July precipitation  
Sea Level Pressure  
Sea Level Pressure 30.04 in    
Wind  
Wind Speed 7 mph (SW)    
Max Wind Speed 17 mph    
Max Gust Speed 24 mph    
Visibility 10 miles    
Events      
T = Trace of Precipitation, MM = Missing Value Source: NWS Daily Summary

Daily Weather History Graph

Daily Weather History Graph

Search for Another Location

Airport:

Trip Planner

Search our weather history database for the weather conditions in past years. The results will help you decide how hot, cold, wet, or windy it might be!

Date:

Astronomy

Jun. 13, 2013 Rise Set
Actual Time 5:46 AM PDT 8:34 PM PDT
Civil Twilight 5:15 AM PDT 9:05 PM PDT
Nautical Twilight 4:35 AM PDT 9:45 PM PDT
Astronomical Twilight 3:50 AM PDT 10:30 PM PDT
Moon 10:25 AM PDT (6/13) 11:47 PM PDT (6/13)
Length of Visible Light 15h 50m
Length of Day
14h 47m
Waxing Crescent, 22% of the Moon is Illuminated
Jun 13
Waxing Crescent
Jun 16
First Quarter
Jun 23
Full
Jun 29
Last Quarter
Jul 8
New

Hourly Weather History & Observations

Time (PDT) Temp. Dew Point Humidity Pressure Visibility Wind Dir Wind Speed Gust Speed Precip Events Conditions
12:15 AM 53.6 °F 46.4 °F 77% 29.99 in 10.0 mi ESE 8.1 mph - N/A   Clear
12:35 AM 53.6 °F 44.6 °F 72% 30.00 in 10.0 mi SE 9.2 mph - N/A   Clear
12:55 AM 51.8 °F 44.6 °F 76% 30.00 in 10.0 mi ESE 5.8 mph - N/A   Clear
1:15 AM 53.6 °F 44.6 °F 72% 30.00 in 10.0 mi ESE 6.9 mph - N/A   Clear
1:35 AM 53.6 °F 44.6 °F 72% 30.00 in 10.0 mi SE 4.6 mph - N/A   Clear
1:55 AM 53.6 °F 46.4 °F 77% 30.01 in 10.0 mi ESE 5.8 mph - N/A   Clear
2:15 AM 53.6 °F 44.6 °F 72% 30.01 in 10.0 mi South 5.8 mph - N/A   Clear
2:35 AM 53.6 °F 42.8 °F 67% 30.01 in 10.0 mi South 3.5 mph - N/A   Clear
2:55 AM 53.6 °F 41.0 °F 62% 30.01 in 10.0 mi West 4.6 mph - N/A   Clear
3:15 AM 55.4 °F 41.0 °F 58% 30.01 in 10.0 mi Calm Calm - N/A   Clear
3:35 AM 53.6 °F 41.0 °F 62% 30.02 in 10.0 mi SSW 4.6 mph - N/A   Clear
3:55 AM 51.8 °F 44.6 °F 76% 30.03 in 10.0 mi East 3.5 mph - N/A   Clear
4:15 AM 50.0 °F 44.6 °F 82% 30.03 in 10.0 mi ENE 3.5 mph - N/A   Clear
4:35 AM 50.0 °F 42.8 °F 76% 30.03 in 10.0 mi Calm Calm - N/A   Clear
4:55 AM 48.2 °F 44.6 °F 87% 30.04 in 10.0 mi SE 3.5 mph - N/A   Clear
5:15 AM 50.0 °F 41.0 °F 71% 30.04 in 10.0 mi SW 4.6 mph - N/A   Clear
5:35 AM 48.2 °F 41.0 °F 76% 30.04 in 10.0 mi SW 4.6 mph - N/A   Clear
5:55 AM 50.0 °F 41.0 °F 71% 30.05 in 10.0 mi SW 4.6 mph - N/A   Clear
6:15 AM 48.2 °F 42.8 °F 82% 30.06 in 10.0 mi ESE 3.5 mph - N/A   Clear
6:35 AM 48.2 °F 44.6 °F 87% 30.07 in 10.0 mi SE 4.6 mph - N/A   Clear
6:55 AM 50.0 °F 44.6 °F 82% 30.07 in 10.0 mi SE 3.5 mph - N/A   Clear
7:15 AM 53.6 °F 44.6 °F 72% 30.08 in 10.0 mi SE 3.5 mph - N/A   Clear
7:35 AM 55.4 °F 42.8 °F 63% 30.08 in 10.0 mi Calm Calm - N/A   Clear
7:55 AM 59.0 °F 41.0 °F 51% 30.08 in 10.0 mi NNW 9.2 mph - N/A   Clear
8:15 AM 59.0 °F 41.0 °F 51% 30.08 in 10.0 mi NNW 8.1 mph - N/A   Clear
8:35 AM 60.8 °F 41.0 °F 48% 30.09 in 10.0 mi North 9.2 mph - N/A   Clear
8:55 AM 62.6 °F 39.2 °F 42% 30.09 in 10.0 mi North 9.2 mph - N/A   Clear
9:15 AM 64.4 °F 39.2 °F 40% 30.10 in 10.0 mi NW 6.9 mph - N/A   Clear
9:35 AM 64.4 °F 39.2 °F 40% 30.09 in 10.0 mi SW 3.5 mph - N/A   Clear
9:55 AM 66.2 °F 41.0 °F 40% 30.10 in 10.0 mi SW 4.6 mph - N/A   Clear
10:15 AM 68.0 °F 41.0 °F 37% 30.10 in 10.0 mi Calm Calm - N/A   Clear
10:35 AM 68.0 °F 41.0 °F 37% 30.09 in 10.0 mi WNW 3.5 mph - N/A   Clear
10:55 AM 71.6 °F 41.0 °F 33% 30.09 in 10.0 mi SSW 6.9 mph - N/A   Clear
11:15 AM 71.6 °F 44.6 °F 38% 30.09 in 10.0 mi WSW 5.8 mph - N/A   Clear
11:35 AM 73.4 °F 44.6 °F 36% 30.09 in 10.0 mi SW 5.8 mph - N/A   Clear
11:55 AM 75.2 °F 44.6 °F 34% 30.09 in 10.0 mi SSW 5.8 mph 16.1 mph N/A   Clear
12:15 PM 75.2 °F 46.4 °F 36% 30.09 in 10.0 mi WSW 5.8 mph 16.1 mph N/A   Clear
12:35 PM 77.0 °F 46.4 °F 34% 30.08 in 10.0 mi SW 12.7 mph - N/A   Clear
12:55 PM 77.0 °F 46.4 °F 34% 30.08 in 10.0 mi WNW 6.9 mph - N/A   Clear
1:15 PM 77.0 °F 44.6 °F 32% 30.07 in 10.0 mi SW 16.1 mph - N/A   Clear
1:35 PM 77.0 °F 44.6 °F 32% 30.07 in 10.0 mi WSW 13.8 mph - N/A   Clear
1:55 PM 78.8 °F 44.6 °F 30% 30.07 in 10.0 mi West 9.2 mph - N/A   Clear
2:15 PM 78.8 °F 46.4 °F 32% 30.06 in 10.0 mi SW 17.3 mph - N/A   Clear
2:35 PM 75.2 °F 46.4 °F 36% 30.06 in 10.0 mi WSW 13.8 mph 24.2 mph N/A   Clear
2:55 PM 77.0 °F 44.6 °F 32% 30.06 in 10.0 mi SW 13.8 mph 17.3 mph N/A   Clear
3:15 PM 77.0 °F 44.6 °F 32% 30.06 in 10.0 mi WSW 9.2 mph - N/A   Clear
3:35 PM 77.0 °F 46.4 °F 34% 30.05 in 10.0 mi WSW 13.8 mph - N/A   Clear
3:55 PM 77.0 °F 46.4 °F 34% 30.04 in 10.0 mi SW 16.1 mph 20.7 mph N/A   Clear
4:15 PM 77.0 °F 46.4 °F 34% 30.04 in 10.0 mi WSW 15.0 mph - N/A   Clear
4:35 PM 77.0 °F 46.4 °F 34% 30.03 in 10.0 mi WSW 13.8 mph - N/A   Clear
4:55 PM 77.0 °F 46.4 °F 34% 30.03 in 10.0 mi SW 11.5 mph 21.9 mph N/A   Clear
5:15 PM 77.0 °F 48.2 °F 36% 30.02 in 10.0 mi WSW 12.7 mph 18.4 mph N/A   Clear
5:35 PM 77.0 °F 46.4 °F 34% 30.01 in 10.0 mi WSW 11.5 mph - N/A   Clear
5:55 PM 77.0 °F 48.2 °F 36% 30.01 in 10.0 mi WSW 11.5 mph 17.3 mph N/A   Clear
6:15 PM 75.2 °F 48.2 °F 38% 30.00 in 10.0 mi WSW 11.5 mph - N/A   Clear
6:35 PM 75.2 °F 48.2 °F 38% 30.00 in 10.0 mi WSW 11.5 mph - N/A   Clear
6:55 PM 75.2 °F 46.4 °F 36% 30.00 in 10.0 mi Calm Calm - N/A   Clear
7:15 PM 77.0 °F 44.6 °F 32% 30.00 in 10.0 mi WNW 6.9 mph - N/A   Clear
7:35 PM 71.6 °F 48.2 °F 43% 30.00 in 10.0 mi SW 9.2 mph - N/A   Clear
7:55 PM 68.0 °F 46.4 °F 46% 30.00 in 10.0 mi SSW 13.8 mph 17.3 mph N/A   Clear
8:15 PM 66.2 °F 46.4 °F 49% 30.00 in 10.0 mi SW 11.5 mph - N/A   Clear
8:35 PM 64.4 °F 46.4 °F 52% 30.00 in 10.0 mi SW 10.4 mph - N/A   Clear
8:55 PM 64.4 °F 46.4 °F 52% 30.00 in 10.0 mi SSW 9.2 mph - N/A   Clear
9:15 PM 64.4 °F 46.4 °F 52% 30.01 in 10.0 mi SSW 8.1 mph - N/A   Clear
9:35 PM 64.4 °F 44.6 °F 49% 30.01 in 10.0 mi SSW 5.8 mph - N/A   Clear
9:55 PM 62.6 °F 46.4 °F 55% 30.02 in 10.0 mi Calm Calm - N/A   Clear
10:15 PM 60.8 °F 46.4 °F 59% 30.02 in 10.0 mi SSE 3.5 mph - N/A   Clear
10:35 PM 59.0 °F 46.4 °F 63% 30.02 in 10.0 mi NNE 6.9 mph - N/A   Clear
10:55 PM 57.2 °F 46.4 °F 67% 30.02 in 10.0 mi NNE 5.8 mph - N/A   Clear
11:15 PM 57.2 °F 46.4 °F 67% 30.02 in 10.0 mi NE 6.9 mph - N/A   Clear
11:35 PM 57.2 °F 46.4 °F 67% 30.01 in 10.0 mi ENE 4.6 mph - N/A   Clear
11:55 PM 57.2 °F 46.4 °F 67% 30.00 in 10.0 mi North 4.6 mph - N/A   Clear